Location: Unspecified
(42.9300°N, 71.1866°W)
Time: 15:22:36
(UTC-05:00)

CZ-3 Stage 3 - Visible Passes

Search period start: 22 January 2017 00:00
Search period end: 01 February 2017 00:00
Orbit: 434 x 34768 km, 30.5° (Epoch: 21 January)

Date Brightness Start Highest point End Pass type
(mag) Time Alt. Az. Time Alt. Az. Time Alt. Az.
22 Jan 8.6 03:12:41 39° WSW 04:56:01 51° WSW 11:40:14 10° SSW visible
22 Jan 7.7 22:46:00 10° S 04:47:06 75° S 08:07:54 10° SE visible
23 Jan 9.4 20:20:17 12° E 02:10:53 42° E 04:16:29 10° E visible
24 Jan 9.5 07:50:28 10° WNW 08:21:16 11° WNW 08:57:43 10° WNW visible
25 Jan 8.5 03:10:51 42° WSW 04:46:17 51° WSW 11:31:06 10° SSW visible
25 Jan 7.7 22:36:57 10° S 04:34:21 75° S 07:59:06 10° SE visible
26 Jan 9.5 20:18:06 14° E 02:01:13 42° E 04:07:37 10° E visible
27 Jan 9.5 07:35:43 10° WNW 08:12:14 11° WNW 08:56:55 10° WNW visible
28 Jan 8.5 03:08:22 44° WSW 04:36:34 51° WSW 11:21:54 10° SSW visible
28 Jan 7.7 22:27:54 10° SSW 04:21:47 75° S 07:50:16 10° SE visible
29 Jan 8.0 20:15:10 15° E 01:51:35 42° E 03:58:43 10° E visible
30 Jan 9.6 07:22:00 10° WNW 08:03:07 11° WNW 08:54:48 10° WNW visible
31 Jan 8.3 03:05:06 45° WSW 04:26:51 52° WSW 11:12:40 10° SSW visible
